[[{"header":{"parameterUnit":"m.s-1","parameterCategory":1,"la1":30.2991,"la2":30.254,"lo1":-89.0895,"lo2":-89.0444,"dy":0.0017,"dx":0.0017,"nx":28,"ny":28,"refTime":"2024-04-02T03:00:00:Z","depth":0,"parameterNumber":2,"parameterNumberName":"U-component_of_WINDS"},"data":[0,0,0,0,0,0,0,0,0,0,0,0,0,0,0,0,0,0,0,0,0,0,0,0,0,0,0,0,0,0,0,0,0,0,0,0,0,0,0,0,0,0,0,0,0,0,0,0,0,0,0,0,0,0,0,0,0,0,-2.938,-2.9381,0,-2.9457,-2.9458,-2.9459,-2.9444,-2.9442,-2.9441,-2.9439,-2.952,-2.9523,-2.9526,0,0,0,0,0,0,0,0,0,0,0,0,0,-2.922,-2.9223,-2.938,-2.9381,-2.9382,-2.9457,-2.9458,-2.9459,-2.9444,-2.9442,-2.944,-2.9439,-2.9518,-2.9523,-2.9527,0,0,0,0,0,0,0,0,0,0,0,0,0,-2.9293,-2.9224,-2.938,-2.9383,-2.9384,-2.9457,-2.9458,-2.946,-2.9444,-2.9442,-2.944,-2.9438,-2.9517,-2.9522,-2.9527,-2.9602,0,0,-2.9543,-2.9545,0,0,0,0,0,0,0,0,-2.9289,-2.9299,-2.9382,-2.9383,-2.9384,-2.9439,-2.9431,-2.9507,-2.9445,-2.9421,-2.9439,-2.9437,-2.9494,-2.9501,-2.9521,-2.9605,-2.9609,-2.9544,-2.9547,-2.9549,-2.955,0,0,0,0,0,0,0,-2.9284,-2.9295,-2.941,-2.9383,-2.9385,-2.9381,-2.9389,-2.9446,-2.9469,-2.9423,-2.9422,-2.9432,-2.9495,-2.9516,-2.9522,-2.961,-2.9543,-2.9548,-2.9551,-2.9553,-2.976,-2.9762,0,0,0,0,0,0,-2.9277,-2.9291,-2.9408,-2.9413,-2.933,-2.9386,-2.9395,-2.9423,-2.9468,-2.9473,-2.9433,-2.9431,-2.9508,-2.9516,-2.9525,-2.9615,-2.9549,-2.9554,-2.9557,-2.9758,-2.9761,-2.9763,0,0,0,0,0,0,-2.9274,-2.9288,-2.9405,-2.9352,-2.9366,-2.9391,-2.9423,-2.9426,-2.9447,-2.9476,-2.948,-2.945,-2.9506,-2.9518,-2.9583,-2.9617,-2.9556,-2.9561,-2.9755,-2.9759,-2.9762,-2.9795,0,0,0,0,0,0,-2.9269,-2.9287,-2.9315,-2.9352,-2.9369,-2.9461,-2.9425,-2.9429,-2.9456,-2.9453,-2.9493,-2.9497,-2.9506,-2.9575,-2.9588,-2.9623,-2.9565,-2.9752,-2.9757,-2.9761,-2.9791,-2.9799,-2.9806,0,0,0,0,0,-2.9264,-2.9321,-2.9316,-2.933,-2.9405,-2.9463,-2.9473,-2.948,-2.9458,-2.9487,-2.9506,-2.9496,-2.9612,-2.9582,-2.9596,-2.9634,-2.975,-2.9755,-2.976,-2.9787,-2.9797,-2.9806,0,0,0,0,0,0,-2.9287,-2.9326,-2.9321,-2.9392,-2.9424,-2.946,-2.9496,-2.9491,-2.953,-2.9526,-2.9535,-2.9544,-2.961,-2.9629,-2.9594,-2.9708,-2.9678,-2.9686,-2.9693,-2.9703,-2.9711,-2.9704,-2.9569,0,0,0,0,0,-2.93,-2.9344,-2.9376,-2.9436,-2.9452,-2.9472,-2.9497,-2.9501,-2.9534,-2.9548,-2.9571,-2.9605,-2.9648,-2.9677,-2.9719,-2.9794,-2.9802,-2.9827,-2.9835,-2.9841,-2.9848,-2.9888,-2.9899,-2.9781,-2.9781,-2.9781,0,0,-2.9328,-2.9355,-2.9382,-2.9441,-2.9466,-2.9511,-2.9483,-2.9532,-2.9565,-2.9555,-2.9617,-2.9636,-2.9674,-2.9744,-2.9776,-2.9762,-2.9883,-2.9848,-2.9852,-2.9856,-2.9895,-2.9906,-2.9916,-2.9784,-2.9784,-2.9783,0,0,-2.9402,-2.9427,-2.9479,-2.9505,-2.9544,-2.9557,-2.9569,-2.9606,-2.9618,-2.9681,-2.9674,-2.9715,-2.979,-2.9817,-2.9841,-2.9927,-2.9919,-2.994,-2.998,-3.002,-3.0029,-3.0037,-3.0067,-3.0078,-2.9947,-2.9947,-2.9947,0,-2.9432,-2.9499,-2.9507,-2.9557,-2.9583,-2.9576,-2.9629,-2.9654,-2.9705,-2.9723,-2.9707,-2.9801,-2.9826,-2.9902,-2.9923,-2.9943,-2.9958,-2.9935,-3.0027,-3.0035,-3.0043,-3.0072,-3.0083,-2.995,-2.9949,-2.9949,-2.9949,0,-2.9534,-2.9581,-2.9619,-2.9667,-2.9698,-2.9749,-2.9765,-2.9795,-2.9797,-2.9812,-2.9876,-2.9906,-2.9954,-2.9973,-2.9974,-3.0049,-3.0039,-3.0025,-2.9994,-3.0057,-3.0083,-3.0094,-2.9953,-2.9952,-2.9951,-2.9951,0,0,-2.9623,-2.9676,-2.969,-2.9711,-2.9754,-2.979,-2.9842,-2.9888,-2.9914,-2.995,-2.9993,-3.0057,-3.0044,-3.0071,-3.0076,-3.0111,-3.0176,-3.0093,-3.0094,-3.0106,-3.026,-3.0269,-3.0282,-3.0172,-3.0174,-3.0176,-3.0256,0,-2.97,-2.979,-2.9799,-2.9879,-2.9922,-2.9917,-2.9962,-2.9993,-3.0009,-3.0048,-3.0066,-3.0111,-3.0091,-3.0107,-3.0142,-3.0161,-3.0207,-3.0156,-3.0212,-3.0214,-3.0201,-3.0296,-3.0306,-3.038,-3.0267,-3.0269,-3.027,0,-2.9801,-2.9839,-2.9924,-2.996,-2.9979,-3.0019,-3.0062,-3.01,-3.0136,-3.0145,-3.0175,-3.0176,-3.0229,-3.0198,-3.0271,-3.0236,-3.026,-3.0273,-3.0276,-3.0281,-3.0245,-3.0302,-3.0404,-3.0415,-3.0287,-3.0286,-3.0284,0,-2.9857,-2.9929,-2.9989,-3.0008,-3.0053,-3.0081,-3.0101,-3.0134,-3.0162,-3.02,-3.0218,-3.0263,-3.0287,-3.0321,-3.0334,-3.031,-3.0407,-3.0377,-3.0415,-3.0415,-3.0435,-3.0433,-3.0541,-3.0453,-3.0452,-3.0452,-3.0452,0,-2.9941,-2.9993,-3.0014,-3.0051,-3.0109,-3.012,-3.0177,-3.0196,-3.0226,-3.0266,-3.0265,-3.0303,-3.0319,-3.0359,-3.037,-3.0429,-3.044,-3.0449,-3.0451,-3.0448,-3.0447,-3.0463,-3.0457,-3.0455,-3.0454,-3.0454,-3.0453,0,-3.0012,-3.0029,-3.0093,-3.013,-3.0141,-3.0182,-3.0213,-3.0249,-3.0265,-3.0316,-3.0329,-3.0353,-3.0401,-3.0418,-3.0476,-3.0483,-3.0551,-3.055,-3.0539,-3.0539,-3.0576,-3.0572,-3.0697,-3.0714,-3.0616,-3.0617,-3.0618,0,-3.0064,-3.0103,-3.0144,-3.0171,-3.0192,-3.0235,-3.0263,-3.0276,-3.0305,-3.0349,-3.0379,-3.0427,-3.0466,-3.0543,-3.0566,-3.061,-3.0609,-3.065,-3.0616,-3.0612,-3.0608,-3.0605,-3.0609,-3.0656,-3.0657,-3.0658,-3.0658,0,-3.0154,-3.016,-3.02,-3.0244,-3.0277,-3.0312,-3.0346,-3.0368,-3.0385,-3.0419,-3.0467,-3.0497,-3.0557,-3.0604,-3.065,-3.0671,-3.0668,-3.0669,-3.068,-3.0677,-3.0669,-3.0673,-3.0555,-3.0666,-3.0665,-3.0664,-3.0664,-3.0664,-3.0216,-3.0251,-3.0285,-3.033,-3.0357,-3.0388,-3.0423,-3.0443,-3.0484,-3.0533,-3.0538,-3.0591,-3.0626,-3.0687,-3.071,-3.0752,-3.0741,-3.0757,-3.0761,-3.0764,-3.0767,-3.0663,-3.0761,-3.076,-3.076,-3.076,-3.076,0,-3.0305,-3.0327,-3.0368,-3.0415,-3.0451,-3.0445,-3.0482,-3.0512,-3.0558,-3.0591,-3.0629,-3.0685,-3.0731,-3.0758,-3.0804,-3.0832,-3.0832,-3.0844,-3.0841,-3.0846,-3.0775,-3.076,-3.0843,-3.0843,-3.0843,-3.0843,-3.0843,-3.0843,-3.0356,-3.0414,-3.0425,-3.0496,-3.0518,-3.0569,-3.0591,-3.062,-3.0646,-3.0709,-3.0747,-3.0764,-3.0795,-3.0843,-3.0885,-3.0892,-3.0908,-3.0921,-3.0927,-3.0859,-3.0851,-3.0843,-3.0829,-3.0925,-3.0925,-3.0994,-3.0995,-3.0995]},{"header":{"parameterUnit":"m.s-1","parameterCategory":1,"la1":30.2991,"la2":30.254,"lo1":-89.0895,"lo2":-89.0444,"dy":0.0017,"dx":0.0017,"nx":28,"ny":28,"refTime":"2024-04-02T03:00:00:Z","depth":0,"parameterNumber":3,"parameterNumberName":"V-component_of_WINDS"},"data":[0,0,0,0,0,0,0,0,0,0,0,0,0,0,0,0,0,0,0,0,0,0,0,0,0,0,0,0,0,0,0,0,0,0,0,0,0,0,0,0,0,0,0,0,0,0,0,0,0,0,0,0,0,0,0,0,0,0,3.7354,3.7354,0,3.7388,3.7388,3.7389,3.7395,3.7395,3.7394,3.7394,3.7429,3.743,3.7431,0,0,0,0,0,0,0,0,0,0,0,0,0,3.7296,3.7297,3.7354,3.7354,3.7355,3.7388,3.7388,3.7389,3.7395,3.7394,3.7394,3.7394,3.7428,3.743,3.7431,0,0,0,0,0,0,0,0,0,0,0,0,0,3.7325,3.7298,3.7354,3.7362,3.7363,3.7388,3.7388,3.7389,3.7395,3.7394,3.7394,3.7394,3.7428,3.743,3.7431,3.745,0,0,3.7437,3.7437,0,0,0,0,0,0,0,0,3.7323,3.7327,3.736,3.7361,3.7363,3.7387,3.7381,3.7409,3.7395,3.7383,3.7394,3.7393,3.7415,3.7418,3.7425,3.7452,3.7453,3.7437,3.7438,3.7439,3.7439,0,0,0,0,0,0,0,3.7321,3.7326,3.7367,3.7361,3.7362,3.7364,3.7368,3.7386,3.7401,3.7384,3.7384,3.7388,3.7416,3.7423,3.7426,3.7454,3.7437,3.7438,3.7439,3.744,3.7501,3.7502,0,0,0,0,0,0,3.7318,3.7324,3.7366,3.7368,3.7341,3.7366,3.737,3.7379,3.7401,3.7403,3.7389,3.7388,3.742,3.7424,3.7427,3.7453,3.7439,3.744,3.7441,3.7501,3.7501,3.7502,0,0,0,0,0,0,3.7316,3.7321,3.7365,3.7346,3.7352,3.7367,3.7378,3.738,3.7388,3.7404,3.7407,3.7394,3.742,3.7425,3.7445,3.7454,3.7441,3.7443,3.75,3.7501,3.7502,3.7503,0,0,0,0,0,0,3.7315,3.7321,3.7328,3.7346,3.7353,3.7382,3.7378,3.7381,3.7391,3.7391,3.741,3.7412,3.742,3.7443,3.7447,3.7456,3.7444,3.7499,3.75,3.7501,3.7502,3.7503,3.7505,0,0,0,0,0,3.7313,3.7326,3.7328,3.7333,3.7362,3.7382,3.7386,3.7395,3.7392,3.7399,3.741,3.7412,3.7452,3.7445,3.745,3.7459,3.7499,3.75,3.7501,3.7501,3.7503,3.7505,0,0,0,0,0,0,3.7307,3.7329,3.7331,3.7351,3.7365,3.7383,3.7393,3.7396,3.7411,3.741,3.7421,3.7425,3.7446,3.7454,3.7446,3.748,3.7475,3.7478,3.7474,3.7476,3.7477,3.7474,3.7446,0,0,0,0,0,3.7309,3.7323,3.7341,3.7357,3.7364,3.7377,3.7386,3.7392,3.7407,3.7413,3.7425,3.744,3.7456,3.7466,3.7482,3.7504,3.7509,3.7513,3.7514,3.7515,3.7517,3.7532,3.7534,3.7506,3.7506,3.7506,0,0,3.7311,3.7324,3.7333,3.7356,3.7367,3.7383,3.7382,3.7398,3.741,3.7415,3.7436,3.7445,3.7463,3.7484,3.7495,3.7492,3.7527,3.7517,3.7518,3.7519,3.7533,3.7536,3.7538,3.7507,3.7507,3.7507,0,0,3.7323,3.7334,3.735,3.7362,3.738,3.7389,3.7393,3.7411,3.7418,3.7439,3.7444,3.7459,3.7486,3.7499,3.7509,3.7529,3.7532,3.7534,3.7542,3.7555,3.7558,3.756,3.7569,3.7571,3.7536,3.7536,3.7536,0,3.7324,3.7347,3.7357,3.7374,3.7385,3.7391,3.7408,3.7419,3.7441,3.7449,3.7446,3.7482,3.7494,3.752,3.7525,3.7532,3.7538,3.7532,3.7557,3.7559,3.7561,3.7569,3.7572,3.7536,3.7536,3.7536,3.7536,0,3.7348,3.7364,3.7375,3.7397,3.7409,3.7425,3.7438,3.745,3.7455,3.7465,3.7488,3.7503,3.7522,3.7529,3.7534,3.7556,3.7555,3.7554,3.755,3.7564,3.7572,3.7575,3.7537,3.7537,3.7537,3.7536,0,0,3.7356,3.7385,3.7389,3.74,3.7422,3.7435,3.7452,3.7472,3.7483,3.7498,3.7514,3.7538,3.7539,3.755,3.7557,3.7569,3.7587,3.7568,3.7568,3.7572,3.7615,3.7615,3.7619,3.7589,3.759,3.759,3.7614,0,3.7372,3.7403,3.7414,3.744,3.7456,3.7464,3.748,3.7495,3.7506,3.7522,3.7533,3.7551,3.755,3.7557,3.7569,3.7582,3.7596,3.758,3.7605,3.7606,3.7601,3.7623,3.7623,3.7644,3.7617,3.7617,3.7618,0,3.7394,3.7411,3.7439,3.7461,3.7468,3.7482,3.7502,3.7517,3.7536,3.7543,3.7557,3.7564,3.7584,3.7578,3.7607,3.7596,3.7607,3.7616,3.7617,3.7619,3.7613,3.7627,3.7651,3.7655,3.7623,3.7622,3.7622,0,3.7398,3.7429,3.745,3.7459,3.7485,3.7495,3.7506,3.7524,3.7536,3.7554,3.7563,3.7583,3.7594,3.761,3.7623,3.7617,3.7651,3.7646,3.7658,3.7658,3.7665,3.7664,3.7692,3.7671,3.7671,3.7671,3.7671,0,3.7415,3.7432,3.7453,3.7466,3.7486,3.7499,3.7519,3.7531,3.7547,3.7564,3.7572,3.7587,3.7603,3.762,3.763,3.7654,3.7658,3.7666,3.7668,3.7665,3.7664,3.7672,3.7672,3.7672,3.7671,3.7671,3.7671,0,3.7423,3.7437,3.7461,3.7485,3.7491,3.7505,3.7525,3.7539,3.7551,3.7572,3.7577,3.7596,3.7618,3.7632,3.7659,3.7666,3.7692,3.7694,3.7686,3.7687,3.7699,3.7698,3.7733,3.7739,3.7714,3.7714,3.7714,0,3.7433,3.7446,3.7472,3.7484,3.7495,3.7514,3.7527,3.7541,3.7554,3.7578,3.759,3.7612,3.7631,3.7665,3.7682,3.7703,3.7706,3.7717,3.7709,3.7707,3.7708,3.7707,3.7709,3.7718,3.7718,3.7719,3.7719,0,3.7449,3.7456,3.7474,3.7496,3.7512,3.7529,3.7547,3.7556,3.7574,3.7589,3.7612,3.7626,3.7656,3.7678,3.7702,3.7715,3.772,3.7721,3.7726,3.7723,3.7718,3.7722,3.769,3.772,3.772,3.772,3.772,3.772,3.7459,3.7472,3.7493,3.7514,3.7529,3.7546,3.7561,3.7575,3.7595,3.762,3.7627,3.7651,3.7672,3.7705,3.7718,3.7738,3.7737,3.7742,3.7744,3.7745,3.7746,3.7715,3.7742,3.7742,3.7742,3.7742,3.7742,0,3.7476,3.749,3.751,3.7535,3.7552,3.7557,3.7577,3.7592,3.7613,3.7632,3.7651,3.7678,3.7701,3.772,3.7744,3.7757,3.776,3.7763,3.7762,3.7765,3.7745,3.774,3.776,3.776,3.776,3.776,3.776,3.776,3.7487,3.7511,3.7521,3.7553,3.7567,3.7591,3.7603,3.762,3.7635,3.7666,3.7685,3.7698,3.7717,3.7743,3.7765,3.777,3.7779,3.7782,3.7787,3.7768,3.7766,3.7764,3.7759,3.7783,3.7783,3.7806,3.7806,3.7806]}]]